Home   Weather   Borås   Past weeks

Flag for Sweden Past Weather in Borås, Sweden — Yesterday and Last 2 Weeks

Now
48 °F

Passing clouds.


Feels Like: 42 °F
Forecast: 27 / 51 °F
Wind: 16 mph from Northeast

Location: Gothenburg / Landvetter

Current Time: Apr 29, 2017 at 3:36:17 pm

Latest Report: Apr 29, 2017 at 3:20 pm


Visibility: N/A

Pressure: 30.09 "Hg

Humidity: 54%

Dew Point: 32 °F

Location of BoråsLocation

Past Weather in Borås — Graph

°F

Borås Temperature Yesterday

Maximum temperature yesterday: 41 °F (at 1:50 pm)
Minimum temperature yesterday: 36 °F (at 6:20 am)
Average temperature yesterday: 38 °F

High & Low Weather Summary for the Past Weeks

 TemperatureHumidityPressure
High52 °F (Apr 22, 2:50 pm)100% (Apr 16, 11:50 pm)30.57 "Hg (Apr 16, 11:50 pm)
Low25 °F (Apr 15, 12:50 am)24% (Apr 22, 2:50 pm)29.33 "Hg (Apr 25, 3:50 am)
Average37 °F71%29.90 "Hg
* Reported Apr 14 2:20 pm — Apr 29 2:20 pm, Borås, Weather by CustomWeather, © 2017

Note: Actual official high and low records may vary slightly from our data, if they occured in-between our weather recording intervals... More about our weather records

Advertising

Borås Weather History for the Previous 24 Hours

Scroll right to see more
 ConditionsComfort  
Time TempWeatherWind HumidityBarometerVisibility
2:20 pm
Sat, Apr 29
46 °FPartly sunny.17 mph53%30.07 "HgN/A
1:50 pm46 °FScattered clouds.14 mph66%30.07 "HgN/A
1:20 pm43 °FScattered clouds.12 mph81%30.07 "HgN/A
12:50 pm46 °FPartly sunny.14 mph62%30.07 "HgN/A
12:20 pm46 °FPassing clouds.13 mph62%30.07 "HgN/A
11:50 am45 °FScattered clouds.13 mph66%30.07 "HgN/A
11:20 am43 °FScattered clouds.14 mph66%30.07 "HgN/A
10:50 am43 °FPassing clouds.14 mph66%30.07 "HgN/A
10:20 am43 °FPassing clouds.15 mph66%30.07 "HgN/A
9:50 am41 °FPassing clouds.12 mph76%30.04 "HgN/A
9:20 am39 °FPassing clouds.12 mph81%30.04 "HgN/A
8:50 am37 °FPassing clouds.13 mph81%30.04 "HgN/A
8:20 am36 °FPassing clouds.14 mph87%30.04 "HgN/A
7:50 am34 °FPassing clouds.12 mph93%30.04 "HgN/A
7:20 am32 °FScattered clouds.12 mph93%30.04 "HgN/A
6:50 am32 °FPassing clouds.10 mph93%30.04 "HgN/A
6:20 am32 °FPassing clouds.14 mph93%30.04 "HgN/A
5:50 am34 °FPassing clouds.10 mph87%30.04 "HgN/A
5:20 am34 °FPassing clouds.9 mph87%30.04 "HgN/A
4:50 am34 °FClear.10 mph87%30.04 "Hg10 mi
4:20 am34 °FClear.9 mph93%30.01 "Hg10 mi
3:50 am36 °FClear.9 mph87%30.01 "Hg10 mi
3:20 am37 °FClear.8 mph81%30.01 "Hg10 mi
2:50 am37 °FClear.8 mph81%30.01 "Hg10 mi
2:20 am37 °FClear.10 mph81%30.01 "Hg10 mi
1:50 am37 °FClear.9 mph87%30.01 "Hg10 mi
1:20 am39 °FPassing clouds.10 mph81%29.98 "HgN/A
12:50 am39 °FPassing clouds.8 mph87%29.98 "HgN/A
12:20 am39 °FClear.7 mph87%29.98 "Hg10 mi
11:50 pm
Fri, Apr 28
39 °FPassing clouds.9 mph87%29.98 "HgN/A
11:20 pm39 °FPassing clouds.8 mph87%29.98 "HgN/A
10:50 pm39 °FPassing clouds.8 mph87%29.98 "HgN/A
10:20 pm39 °FPassing clouds.6 mph93%29.98 "HgN/A
9:50 pm39 °FPassing clouds.6 mph93%29.95 "HgN/A
9:20 pm39 °FOvercast.7 mph93%29.95 "HgN/A
8:50 pm39 °FPassing clouds.7 mph93%29.95 "HgN/A
8:20 pm41 °FDrizzle. Overcast.10 mph87%29.95 "HgN/A
7:50 pm41 °FLight rain. Partly sunny.6 mph93%29.92 "HgN/A
7:20 pm41 °FDrizzle. Partly sunny.6 mph93%29.92 "HgN/A
6:50 pm41 °FDrizzle. Mostly cloudy.3 mph87%29.92 "HgN/A
6:20 pm41 °FLight rain. Cloudy.8 mph87%29.92 "Hg4 mi
5:50 pm41 °FDrizzle. Broken clouds.9 mph93%29.92 "HgN/A
5:20 pm41 °FDrizzle. Cloudy.8 mph87%29.89 "HgN/A
4:50 pm39 °FDrizzle. Cloudy.8 mph100%29.89 "Hg5 mi
4:20 pm39 °FDrizzle. Mostly cloudy.10 mph93%29.89 "HgN/A
3:50 pm39 °FLight rain. Low clouds.12 mph93%29.89 "HgN/A
3:20 pm39 °FLight rain. Broken clouds.10 mph93%29.89 "HgN/A
Weather by CustomWeather, © 2017

See weather overviewHow to use our weather pages